sat.trackr.live / text

‹ back to catalog

ONEWEB-0119

NORAD 47265 · 2020-100H

PAYLOAD ACTIVE UNKNOWN

§ Identity

Operator
Country
UK
Launch date
2020-12-18
Launch site
VOSTO
Launch vehicle
Mass (kg)
RCS (m²)

Purposes: comms

External: N2YO · Heavens-Above · Gunter

§ Orbital elements

Epoch: 2026-05-25T02:31:34.358592Z

Period
109.72 min
Inclination
87.8950°
Eccentricity
0.0001773
Mean motion
13.12442220 rev/d
Perigee alt
1,212.4 km
Apogee alt
1,215.1 km
Semi-major
7,591.9 km
B*
1.2539e-3
RAAN
355.2616°
Arg perigee
86.6573°
Mean anomaly
273.4758°
Rev number
26,167

§ Raw data

ONEWEB-01191 47265U 20100H   26145.10525878  .00000464  00000+0  12539-2 0  99962 47265  87.8950 355.2616 0001773  86.6573 273.4758 13.12442220261673

JSON: /api/v1/satellites/47265 · /tle

For live sub-satellite position, see the globe view (requires WebGL).

§ Visibility from observer

Set your observer location to see the next 7 days of passes ≥ 10°. The values pass through the URL so the page stays shareable.

No JS? Fill the form by hand. The geolocation button needs JavaScript.